Terug naar catalogus

IGS R-7

ActiefMilitairSSO
NORAD 55329·PAYLOAD·🇯🇵 Japan

Gelanceerd Jan 26, 2023 vanaf Tanegashima Space Center

Loading…

Volgende Passages (komende 24 uur)

TLE

VerouderdSource: Mike McCants

Epoch: Aug 26, 2026, 21:10 UTC

1 55329U 23012A   26238.88242450 0.00000000  00000-0  00000-0 0    09
2 55329  97.3646 316.2833 0002042  18.7175 341.2823 15.25980876    08

Volg IGS R-7 in realtime met AllMySat

Download on the App Store